This is the latest recevied weather packets stored in our database for station/object OK1KKY-18. If no packets are shown the sender has not sent any weather packets the latest 10 day(s).
| Time | Temp. | Humidity | Pressure | Rain* | Wind** | Luminosity | Snow |
|---|---|---|---|---|---|---|---|
| 1787827643 | 22.78° C | 47% | 1020.9 hPa | - | - | - | - |
| 1787827042 | 22.78° C | 47% | 1020.9 hPa | - | - | - | - |
| 1787826443 | 22.78° C | 50% | 1020.9 hPa | - | - | - | - |
| 1787825843 | 22.22° C | 48% | 1020.9 hPa | - | - | - | - |
| 1787825243 | 22.22° C | 48% | 1021.1 hPa | - | - | - | - |
| 1787824643 | 21.67° C | 50% | 1021.2 hPa | - | - | - | - |
| 1787824043 | 21.67° C | 50% | 1021.3 hPa | - | - | - | - |
| 1787823442 | 21.67° C | 54% | 1021.4 hPa | - | - | - | - |
| 1787822846 | 21.11° C | 52% | 1021.3 hPa | - | - | - | - |
| 1787822241 | 21.11° C | 52% | 1021.3 hPa | - | - | - | - |
| 1787821641 | 21.11° C | 51% | 1021.1 hPa | - | - | - | - |
| 1787821041 | 21.11° C | 51% | 1021.3 hPa | - | - | - | - |
| 1787820441 | 20.56° C | 57% | 1021.2 hPa | - | - | - | - |
| 1787819841 | 20.56° C | 53% | 1021.3 hPa | - | - | - | - |
| 1787819241 | 20.56° C | 57% | 1021.4 hPa | - | - | - | - |
| 1787818641 | 19.44° C | 59% | 1021.5 hPa | - | - | - | - |
| 1787818041 | 19.44° C | 64% | 1021.4 hPa | - | - | - | - |
| 1787817441 | 18.89° C | 58% | 1021.4 hPa | - | - | - | - |
| 1787816841 | 18.33° C | 62% | 1021.6 hPa | - | - | - | - |
| 1787816241 | 18.33° C | 71% | 1021.5 hPa | - | - | - | - |
| 1787815641 | 17.22° C | 69% | 1021.5 hPa | - | - | - | - |
| 1787815041 | 16.67° C | 81% | 1021.6 hPa | - | - | - | - |
| 1787814441 | 15° C | 93% | 1021.7 hPa | - | - | - | - |
| 1787813841 | 14.44° C | 93% | 1021.6 hPa | - | - | - | - |
| 1787813241 | 13.89° C | 92% | 1021.5 hPa | - | - | - | - |
* Rain since midnight (hover to see other rain measurements)
** Current wind speed in m/s (hover to see current wind gust speed)